TimePST,TemperatureF,Dew PointF,Humidity,Sea Level PressureIn,VisibilityMPH,Wind Direction,Wind SpeedMPH,Gust SpeedMPH,PrecipitationIn,Events,Conditions,WindDirDegrees,DateUTC
12:53 AM,35.1,34.0,96,30.25,9.0,Calm,Calm,-,0.01,,Clear,0,2012-12-06 08:53:00
1:40 AM,33.8,32.0,93,30.24,1.8,Calm,Calm,-,N/A,,Partly Cloudy,0,2012-12-06 09:40:00
1:53 AM,33.1,32.0,96,30.25,2.5,Calm,Calm,-,N/A,,Mostly Cloudy,0,2012-12-06 09:53:00
2:00 AM,33.8,32.0,93,30.25,1.2,Calm,Calm,-,N/A,,Mostly Cloudy,0,2012-12-06 10:00:00
2:06 AM,33.8,33.8,100,30.25,2.0,Calm,Calm,-,N/A,,Overcast,0,2012-12-06 10:06:00
2:14 AM,33.8,32.0,93,30.25,6.0,Calm,Calm,-,N/A,,Overcast,0,2012-12-06 10:14:00
2:53 AM,37.0,36.0,96,30.25,10.0,Calm,Calm,-,N/A,,Overcast,0,2012-12-06 10:53:00
3:53 AM,37.9,36.0,93,30.24,8.0,Calm,Calm,-,N/A,,Overcast,0,2012-12-06 11:53:00
4:53 AM,41.0,39.0,93,30.23,10.0,Calm,Calm,-,N/A,,Overcast,0,2012-12-06 12:53:00
5:53 AM,42.1,39.0,89,30.22,10.0,SE,3.5,-,N/A,,Overcast,130,2012-12-06 13:53:00
6:53 AM,43.0,37.9,82,30.22,10.0,Calm,Calm,-,N/A,,Overcast,0,2012-12-06 14:53:00
7:53 AM,44.1,37.9,79,30.22,10.0,South,4.6,-,N/A,,Overcast,190,2012-12-06 15:53:00
8:53 AM,44.1,37.9,79,30.22,10.0,South,5.8,-,N/A,,Overcast,180,2012-12-06 16:53:00
9:53 AM,45.0,37.9,76,30.23,10.0,Variable,6.9,-,N/A,,Overcast,0,2012-12-06 17:53:00
10:53 AM,46.0,37.9,73,30.22,10.0,SSW,10.4,-,N/A,,Overcast,200,2012-12-06 18:53:00
11:53 AM,46.9,39.0,74,30.20,10.0,SSW,9.2,-,N/A,,Overcast,200,2012-12-06 19:53:00
12:50 PM,48.2,39.2,71,30.19,10.0,SSW,11.5,17.3,N/A,,Overcast,200,2012-12-06 20:50:00
12:53 PM,48.0,39.0,71,30.19,10.0,SSW,9.2,17.3,N/A,,Overcast,200,2012-12-06 20:53:00
1:17 PM,48.2,39.2,71,30.17,10.0,South,8.1,-,N/A,,Overcast,190,2012-12-06 21:17:00
1:34 PM,48.2,39.2,71,30.17,10.0,Variable,6.9,-,N/A,,Overcast,0,2012-12-06 21:34:00
1:44 PM,48.2,39.2,71,30.16,10.0,South,8.1,-,N/A,,Overcast,190,2012-12-06 21:44:00
1:53 PM,48.9,39.0,69,30.17,10.0,South,9.2,17.3,N/A,,Overcast,190,2012-12-06 21:53:00
2:53 PM,48.9,39.9,71,30.16,10.0,South,9.2,-,N/A,,Overcast,190,2012-12-06 22:53:00
3:15 PM,48.2,41.0,76,30.16,10.0,SSW,9.2,17.3,0.00,Rain,Light Rain,200,2012-12-06 23:15:00
3:53 PM,48.9,41.0,74,30.16,10.0,South,8.1,-,0.00,,Overcast,190,2012-12-06 23:53:00
4:53 PM,48.0,41.0,77,30.16,10.0,SSW,6.9,-,N/A,,Overcast,210,2012-12-07 00:53:00
5:53 PM,48.0,41.0,77,30.17,10.0,SSW,5.8,-,0.00,,Overcast,210,2012-12-07 01:53:00
6:07 PM,46.4,42.8,87,30.17,10.0,SSW,8.1,-,0.00,Rain,Light Rain,210,2012-12-07 02:07:00
6:19 PM,46.4,42.8,87,30.17,10.0,SSW,8.1,-,0.00,Rain,Light Rain,200,2012-12-07 02:19:00
6:45 PM,46.4,42.8,87,30.17,10.0,SSW,6.9,-,0.00,Rain,Light Rain,210,2012-12-07 02:45:00
6:53 PM,46.9,42.1,83,30.18,10.0,SSW,6.9,-,0.00,,Overcast,200,2012-12-07 02:53:00
7:19 PM,46.4,42.8,87,30.18,10.0,Variable,6.9,-,N/A,,Overcast,0,2012-12-07 03:19:00
7:53 PM,46.0,42.1,86,30.19,10.0,SSW,4.6,-,N/A,,Overcast,200,2012-12-07 03:53:00
8:53 PM,46.9,42.1,83,30.20,10.0,SSW,6.9,-,0.00,Rain,Light Rain,210,2012-12-07 04:53:00
9:53 PM,46.0,42.1,86,30.19,10.0,South,6.9,-,0.00,,Mostly Cloudy,190,2012-12-07 05:53:00
10:41 PM,46.4,42.8,87,30.21,10.0,South,6.9,-,N/A,,Overcast,190,2012-12-07 06:41:00
10:51 PM,46.4,42.8,87,30.21,10.0,South,3.5,-,N/A,,Overcast,180,2012-12-07 06:51:00
10:53 PM,46.9,42.1,83,30.21,10.0,South,5.8,-,N/A,,Overcast,190,2012-12-07 06:53:00
11:50 PM,46.4,42.8,87,30.21,10.0,South,5.8,-,N/A,,Overcast,180,2012-12-07 07:50:00
11:53 PM,46.0,42.1,86,30.21,10.0,South,6.9,-,N/A,,Overcast,180,2012-12-07 07:53:00